Location: Beadle
(51.4667°N, 109.0000°W)
Time: 18:49:02
(UTC+00:00)

O/OREOS (USA 219) - Pass Details

Date: 28 June 2022
Orbit: 621 x 646 km, 72.0° (Epoch: 22 May)

Event Time Altitude Azimuth Distance (km) Brightness Sun altitude
Rises 07:44:46 0° 332° (NNW) 2,962 ? -15.1°
Reaches altitude 10° 07:47:04 10° 335° (NNW) 2,051 ? -15.0°
Maximum altitude 07:51:40 70° 59° (ENE) 691 ? -14.9°
Enters shadow 07:55:38 14° 143° (SE) 1,798 ? -14.8°
